SDO

Last updated on Sun Jun 21 2026 00:03:04 GMT+0000 (Coordinated Universal Time)

1 36395U 10005A 26170.38591488 -.00000089 00000+0 00000+0 0 9990 2 36395 34.6572 86.3078 0001831 48.8927 169.2237 1.00270271 60082
UTC large
Height (km)
Speed (km/s)
/
Latitude / Longitude
Inclination (degrees)
Orbital Period (minutes)
Azimuth
Elevation
Range (km)
Doppler Factor

Next 0 passes for location: London (51.5072 / 0.1276)

No passes found over London.
SDO